Flag for USA

Past Weather in Bryan – College Station, Texas, USA — Yesterday and Last 2 Weeks

Now
66 °F

Overcast.


Feels Like: 66 °F
Forecast: 74 / 58 °F
Wind: 14 mph from Northeast

Location: Easterwood Field

Current Time: Oct 16, 2019 at 12:27:10 pm

Latest Report: Oct 16, 2019 at 11:53 am


Visibility: 10 mi

Pressure: 30.11 "Hg

Humidity: 54%

Dew Point: 49 °F

Location of Bryan – College StationLocation

Past Weather in Bryan – College Station — Graph

°F

Bryan – College Station Temperature Yesterday

Maximum temperature yesterday: 90 °F (at 2:53 pm)
Minimum temperature yesterday: 77 °F (at 12:53 am)
Average temperature yesterday: 81 °F

High & Low Weather Summary for the Past Weeks

 TemperatureHumidityPressure
High97 °F (Oct 5, 3:53 pm)94% (Oct 2, 3:53 am)30.26 "Hg (Oct 2, 3:53 am)
Low48 °F (Oct 11, 3:16 pm)28% (Oct 8, 4:53 pm)29.76 "Hg (Oct 10, 4:53 pm)
Average76 °F67%29.98 "Hg
* Reported Oct 1 10:53 am — Oct 16 10:53 am, Bryan – College Station. Weather by CustomWeather, © 2019

Note: Actual official high and low records may vary slightly from our data, if they occured in-between our weather recording intervals... More about our weather records

Advertising

Bryan – College Station Weather History for the Previous 24 Hours

Scroll right to see more
 ConditionsComfort  
Time TempWeatherWind HumidityBarometerVisibility
10:53 am
Wed, Oct 16
66 °FOvercast.18 mph50%30.09 "Hg10 mi
9:53 am65 °FOvercast.15 mph54%30.09 "Hg10 mi
8:53 am65 °FOvercast.16 mph56%30.06 "Hg10 mi
7:53 am65 °FOvercast.16 mph61%30.01 "Hg10 mi
7:14 am66 °FOvercast.17 mph73%30.00 "Hg10 mi
6:53 am67 °FOvercast.18 mph76%29.98 "Hg10 mi
6:44 am68 °FOvercast.22 mph76%30.00 "Hg10 mi
6:09 am71 °FLow clouds.17 mph87%29.97 "Hg10 mi
5:53 am73 °FOvercast.21 mph84%29.96 "Hg10 mi
4:53 am75 °FLow clouds.20 mph88%29.92 "Hg10 mi
4:26 am76 °FPassing clouds.16 mph88%29.92 "Hg10 mi
3:53 am76 °FPassing clouds.10 mph91%29.90 "Hg10 mi
3:35 am76 °FPassing clouds.10 mph94%29.90 "Hg10 mi
2:53 am76 °FPartly cloudy.7 mph94%29.89 "Hg8 mi
1:53 am76 °FClear.5 mph94%29.88 "Hg10 mi
12:53 am77 °FPassing clouds.3 mph90%29.88 "Hg10 mi
11:53 pm
Tue, Oct 15
78 °FClear.6 mph90%29.89 "Hg10 mi
10:53 pm78 °FOvercast.3 mph90%29.88 "Hg10 mi
9:53 pm78 °FPassing clouds.6 mph90%29.86 "Hg10 mi
8:53 pm79 °FLight rain. Passing clouds.6 mph88%29.84 "Hg10 mi
7:53 pm81 °FClear.6 mph79%29.83 "Hg10 mi
6:53 pm83 °FSunny.5 mph74%29.81 "Hg10 mi
5:53 pm87 °FSunny.5 mph63%29.80 "Hg10 mi
4:53 pm85 °FSunny.3 mph70%29.80 "Hg10 mi
3:53 pm81 °FMostly cloudy.8 mph72%29.84 "Hg10 mi
3:28 pm85 °FThundershowers. Mostly cloudy.21 mph63%29.86 "Hg10 mi
2:53 pm90 °FScattered clouds.7 mph57%29.84 "Hg10 mi
1:53 pm88 °FScattered clouds.No wind61%29.88 "Hg10 mi
12:53 pm86 °FPassing clouds.8 mph70%29.90 "Hg10 mi
12:12 pm84 °FCloudy.7 mph74%29.93 "Hg10 mi
Weather by CustomWeather, © 2019

See weather overview